Regional Weather Roundup
Issued by NWS

Home | Current Version | Previous Version | Graphics & Text | Print | Product List | Glossary On
Versions: 1 2 3 4 5 6 7 8 9 10 11 12 13 14 15 16 17 18 19 20 21 22 23 24 25 26 27 28 29 30 31 32 33 34 35 36 37 38 39 40 41 42 43 44 45 46 47 48 49 50
000
ASUS43 KMKX 261800
RWRWI

WISCONSIN REGIONAL WEATHER ROUNDUP
NATIONAL WEATHER SERVICE MILWAUKEE/SULLIVAN WI
1200 PM CST FRI DEC 26 2014

NOTE: "FAIR" INDICATES FEW OR NO CLOUDS BELOW 12,000 FEET WITH NO
SIGNIFICANT WEATHER AND/OR OBSTRUCTIONS TO VISIBILITY.

WIZ001-002-006>008-014>016-023>028-261900-
NORTHWEST WISCONSIN

CITY           SKY/WX    TMP DP  RH WIND       PRES   REMARKS
SUPERIOR ARPT  FLURRIES  30  26  83 N3        30.06F
ASHLAND        CLOUDY    31  28  89 N6        30.04S WCI  25
6HR MIN TEMP:  30; 6HR MAX TEMP:  31; 6HR PCP: TRACE;

HAYWARD        CLOUDY    30  26  85 NE9       30.00F WCI  22
6HR MIN TEMP:  29; 6HR MAX TEMP:  30; 6HR PCP: TRACE;

SIREN          CLOUDY    30  28  90 NE7       30.03S WCI  23
CUMBERLAND     CLOUDY    30  28  93 N12       29.99S WCI  21
RICE LAKE      CLOUDY    32  29  88 N9        30.01S WCI  24
CHETEK         CLOUDY    32  30  93 CALM      29.99S
LADYSMITH      CLOUDY    32  30  92 N8        29.98F WCI  25
EAU CLAIRE     NOT AVBL
MENOMONIE      CLOUDY    33  31  90 N8        29.98S WCI  27
NEW RICHMOND   CLOUDY    32  30  93 N10       30.00F WCI  24
OSCEOLA        CLOUDY    31  31 100 N7        30.04F WCI  24
$$

WIZ003>005-009-010-017-018-261900-
NORTH CENTRAL WISCONSIN

CITY           SKY/WX    TMP DP  RH WIND       PRES   REMARKS
MANITOWISH WTR LGT SNOW  29  29 100 CALM      29.96S
ARBOR VITAE    CLOUDY    32  30  92 N3        29.96R
WOODRUFF       CLOUDY    32  30  92 N3        29.96R
RHINELANDER    CLOUDY    30  29  96 N6        29.94S FOG     WCI  24
6HR MIN TEMP:  29; 6HR MAX TEMP:  30;

EAGLE RIVER    CLOUDY    30  30  99 N5        29.94S FOG     WCI  25
LAND O LAKES   CLOUDY    30  28  93 CALM      29.96S FOG
PHILLIPS       CLOUDY    30  28  94 N6        29.96S WCI  24
TOMAHAWK       CLOUDY    31  30  94 CALM      29.94F FOG
MEDFORD        CLOUDY    32  30  93 N5        29.93S FOG     WCI  27
MERRILL        CLOUDY    32  31  96 CALM      29.94S FOG
$$

WIZ029-030-035-036-043>047-261900-
CENTRAL WISCONSIN

CITY           SKY/WX    TMP DP  RH WIND       PRES   REMARKS
WAUSAU         CLOUDY    32  31  96 N3        29.92F FOG
6HR MIN TEMP:  26; 6HR MAX TEMP:  32;

MOSINEE        FOG       30  30 100 CALM      29.93F VSB 1/8
MARSHFIELD     FAIR      36  31  82 CALM      29.92F
6HR MIN TEMP:  25; 6HR MAX TEMP:  36;

STEVENS POINT  FAIR      35  32  87 CALM      29.93F
WAUPACA        FAIR      36  35  96 NW3       29.95F FOG
WAUTOMA        NOT AVBL
WISC RAPIDS    FAIR      41  32  70 SW6       29.94F
6HR MIN TEMP:  23; 6HR MAX TEMP:  42;

CAMP DOUGLAS   NOT AVBL
$$

WIZ011>013-019>022-031-037>040-048>050-261900-
NORTHEAST WISCONSIN

CITY           SKY/WX    TMP DP  RH WIND       PRES   REMARKS
ANTIGO         CLOUDY    31  31 100 CALM      29.92F FOG
SHAWANO        FOG       33  32  96 CALM      29.96F VSB 1/4
OCONTO         CLOUDY    36  36 100 NW3       29.96F
STURGEON BAY   CLOUDY    39  34  81 SW3       29.97S
6HR MIN TEMP:  34; 6HR MAX TEMP:  39;

GREEN BAY      FAIR      41  36  82 SW3       29.95F
6HR MIN TEMP:  30; 6HR MAX TEMP:  42;

MANITOWOC      NOT AVBL
APPLETON       MOSUNNY   41  37  87 SW7       29.95F
CLINTONVILLE   FOG       32  32 100 N5        29.95F VSB<1/4 WCI  27
OSHKOSH        FAIR      43  35  73 SW8       29.94F
6HR MIN TEMP:  30; 6HR MAX TEMP:  43;

$$

WIZ032>034-041-042-053>061-261900-
SOUTHWEST WISCONSIN

CITY           SKY/WX    TMP DP  RH WIND       PRES   REMARKS
LA CROSSE      FAIR      38  31  76 NW6       29.94F WCI  33
6HR MIN TEMP:  23; 6HR MAX TEMP:  38;

SPARTA         FAIR      42  32  69 W3        29.94F
VIROQUA        FAIR      39  33  78 W5        29.92F
BOSCOBEL       FAIR      45  33  63 W7        29.95S
6HR MIN TEMP:  26; 6HR MAX TEMP:  45;

PRAIRIE DU CHI FAIR      43  32  65 SW5       29.94F
PLATTEVILLE    FAIR      43  36  77 CALM      29.95F
$$

WIZ056-057-062-063-064-067-068-261900-
SOUTH CENTRAL WISCONSIN

CITY           SKY/WX    TMP DP  RH WIND       PRES   REMARKS
REEDSBURG      FAIR      43  34  70 SW6       29.93F
BARABOO/DELLS  FAIR      43  33  65 W6        29.93F
LONE ROCK      NOT AVBL
MINERAL POINT  FAIR      43  36  75 SW9       29.94F
MADISON        PTSUNNY   43  34  70 S7        29.94F
6HR MIN TEMP:  35; 6HR MAX TEMP:  43;

MIDDLETON      FAIR      45  34  65 SW7       29.95F
WATERTOWN      FAIR      42  36  80 SW8       29.96S
MONROE         FAIR      41  36  81 SW9       29.95F
JANESVILLE     SUNNY     46  36  66 SW12      29.96
$$

WIZ051-052-058>065-066-070>072-261900-
SOUTHEAST WISCONSIN

CITY           SKY/WX    TMP DP  RH WIND       PRES   REMARKS
MILWAUKEE      PTSUNNY   47  34  60 SW15      29.98F
6HR MIN TEMP:  38; 6HR MAX TEMP:  47;

WAUKESHA       SUNNY     43  34  70 SW10G17   29.98F
MILWAUKEE/TIMM SUNNY     45  34  65 SW13      29.98F
RACINE         FAIR      48  35  60 SW12G22   29.99F
6HR MIN TEMP:  37; 6HR MAX TEMP:  48;

BURLINGTON     FAIR      46  35  67 SW13      29.98F
KENOSHA        FAIR      47  37  68 SW13      29.98F
6HR MIN TEMP:  37; 6HR MAX TEMP:  47;

FOND DU LAC    FAIR      44  35  70 SW7       29.95F
6HR MIN TEMP:  35; 6HR MAX TEMP:  44;

SHEBOYGAN      FAIR      46  36  68 W9        29.95F
6HR MIN TEMP:  31; 6HR MAX TEMP:  46;

WEST BEND      FAIR      43  32  65 SW12      29.96F
JUNEAU         FAIR      42  36  80 S10       29.97S
$$

LSZ147-162-261900-
LAKE SUPERIOR

STATION/POSITION TIME  TEMP    WIND        PRES    WAVE
                       AIR SEA DIR/SP/G            HT/PER
                 (UTC) (F)     (DEG/KT/KT) (MB)    (FT/S)
DEVILS ISLAND    1700   32     360/ 11/ 12 1018.0F
PORT WING        1700   31      10/  8/ 10 1017.9
SAXON HARBOR     1700   32     360/ 12/ 14 1016.9S
$$

LMZ867-665-643>646-261900-
LAKE MICHIGAN

STATION/POSITION TIME  TEMP    WIND        PRES    WAVE
                       AIR SEA DIR/SP/G            HT/PER
                 (UTC) (F)     (DEG/KT/KT) (MB)    (FT/S)
CHAMBERS ISLAND  1700   36      CALM  /  2 1015.2F
NORTHPORT PIER   1700   37      CALM  /  1 1014.9F
SISTER BAY       1713             CALM       N/A
ALGOMA LAKESHORE 1745          200/  5/  6   N/A
KEWAUNEE LAKESHO 1700   39     180/  2/  6 1013.9F
SHEBOYGAN LAKESH 1700   42 39  210/  6/  6 1015.4F
PORT WASHINGTON  1740   47     250/  6/ 12 1015.6F
MILWAUKEE LAKESH 1700   42     240/ 11/ 14   N/A
KENOSHA   LAKESH 1700   45     220/  9/ 16 1015.9F
$$

TC  - TEMPERATURE IN CELSIUS
VSB - VISIBILITY IN STATUTE MILES
WCI - WIND CHILL INDEX
HX  - HEAT INDEX




USA.gov is the U.S. government's official web portal to all federal, state and local government web resources and services.